Location: Salamanca
(40.9670°N, 5.6500°W)
Time: 05:43:13
(UTC+02:00)

Daily predictions for brighter satellites

Satellite Brightness Start Highest point End
(mag) Time Altitude Azimuth Time Altitude Azimuth Time Altitude Azimuth
Meteor 2-10 4.2 00:00:12 10° N 00:05:50 88° W 00:08:59 28° S
RESURS DK-1 2.6 00:04:48 10° NNW 00:08:56 64° WSW 00:10:21 38° S
ATLAS 5 CENTAUR R/B 4.1 00:05:33 10° W 00:09:33 26° NW 00:13:52 10° NNE
Landsat 7 3.8 00:07:33 33° SSE 00:09:42 88° W 00:14:29 10° NNW
H-2A R/B 2.4 00:08:21 25° S 00:11:28 63° W 00:16:52 10° NNW
Cosmos 1500 Rocket 3.5 00:10:22 35° S 00:12:14 80° E 00:16:42 10° N
Cosmos 2151 2.9 00:12:50 42° SSE 00:14:09 69° E 00:18:26 10° NNE
SL-14 R/B 4.0 00:15:51 23° SSW 00:18:04 51° W 00:21:56 10° N
Abrixas rocket 2.7 00:15:13 10° NW 00:18:25 53° NNE 00:18:57 46° ENE
Cosmos 2233 Rocket 3.9 00:12:43 10° N 00:18:57 76° E 00:21:53 33° SSE
SME Rocket 4.3 00:18:46 24° E 00:19:43 27° ENE 00:23:29 10° N
Cosmos 1626 2.1 00:21:17 56° ESE 00:21:31 58° E 00:25:11 10° NNE
Tiangong 1 1.4 00:19:14 10° WNW 00:21:43 54° NNW 00:21:43 54° NNW
CARTOSAT-1 3.4 00:21:06 46° SSE 00:22:21 89° E 00:26:42 10° NNW
SL-19 R/B 4.2 00:17:19 10° NNE 00:22:39 66° ESE 00:24:58 35° S
Cosmos 1300 3.7 00:20:18 10° NNW 00:23:55 40° W 00:25:15 29° SW
CZ-4 R/B 4.0 00:19:43 10° NNE 00:24:29 52° E 00:25:33 43° SE
Terra 1.7 00:22:59 41° SSE 00:24:39 90° WNW 00:29:25 10° NNW
Cosmos 1726 3.9 00:24:17 10° NNW 00:27:23 26° W 00:28:53 20° SW
Cosmos 1603 4.3 00:22:11 10° NW 00:27:34 46° WSW 00:30:09 28° SSW
Cosmos 1805 Rocket 4.2 00:31:08 37° E 00:31:17 37° E 00:35:16 10° NNE
CZ-4B R/B 3.8 00:26:09 10° NNE 00:31:18 51° E 00:32:30 42° SE
Cosmos 540 Rocket 4.0 00:30:11 10° N 00:35:09 46° ENE 00:36:37 36° ESE
Cosmos 1844 Rocket 4.3 00:37:03 17° E 00:37:03 17° E 00:40:05 10° ENE
Cosmos 1515 Rocket 4.4 00:36:21 10° NNW 00:40:27 43° W 00:41:50 32° SW
Cosmos 2228 Rocket 4.4 00:38:26 10° NNW 00:42:33 34° W 00:44:30 24° SW
Meteor 2-12 Rocket 4.4 00:36:40 10° N 00:42:45 83° W 00:45:10 39° S
H-2A R/B 2.1 00:42:48 54° SSW 00:43:39 70° WSW 00:47:55 10° NNW
Cosmos 1943 3.3 00:38:27 10° NNW 00:44:05 70° WSW 00:45:55 43° S
Cosmos 1151 Rocket 3.6 00:41:46 10° NNW 00:46:02 50° W 00:47:08 39° SW
Spot 4 3.8 00:49:52 56° SSE 00:50:55 85° ENE 00:55:48 10° NNW
Cosmos 304 Rocket 3.7 00:46:46 10° NNW 00:51:35 75° ENE 00:52:24 59° SE
Cosmos 1354 Rocket 3.9 00:50:21 43° SSW 00:52:09 89° WNW 00:57:25 10° NNE
IGS 5A 4.2 00:51:45 38° SW 00:52:31 42° W 00:56:29 10° NNW
Cosmos 1869 3.8 00:53:45 10° N 00:57:20 45° ENE 00:57:20 45° ENE
Cosmos 1455 2.1 00:53:53 10° N 00:57:42 80° W 00:57:42 80° W
Cosmos 2285 Rocket 3.9 00:55:37 10° NNW 01:01:59 88° WSW 01:04:01 47° SSE
CZ-4C R/B 3.3 01:02:36 78° SE 01:02:51 84° ENE 01:07:14 10° NNW
Cosmos 1400 Rocket 4.5 01:08:08 24° ENE 01:08:08 24° ENE 01:10:44 10° NE
ERBS 4.1 01:05:32 10° WNW 01:07:20 24° W 01:07:20 24° W
Cosmos 2034 Rocket 4.2 01:02:53 10° N 01:09:10 62° E 01:10:55 45° SE
SWAS 4.3 01:10:46 81° E 01:10:46 81° E 01:14:59 10° NNE
Cosmos 841 Rocket 4.4 01:06:19 10° NW 01:11:08 38° WSW 01:12:19 33° SW
CZ-2C R/B 3.1 01:08:36 10° NNE 01:13:35 41° E 01:13:48 41° ESE
Cosmos 1891 Rocket 4.3 01:10:04 10° N 01:16:10 78° E 01:17:39 53° SSE
Cosmos 783 Rocket 4.4 01:18:46 10° NNW 01:24:06 78° ENE 01:24:52 64° SE
CZ-4C R/B 2.1 01:26:12 59° SE 01:26:20 60° ESE 01:32:05 10° NE
Cosmos 2278 Rocket 3.9 01:29:08 19° E 01:29:08 19° E 01:32:30 10° NE
Lacrosse 5 3.6 01:25:08 10° WNW 01:28:20 20° WSW 01:28:20 20° WSW
Sich 1 3.1 01:31:28 69° WNW 01:31:28 69° WNW 01:35:42 10° N
Cosmos 1844 4.2 01:34:32 41° ESE 01:34:32 41° ESE 01:39:43 10° NE
Meteor 2-10 Rocket 4.1 01:29:22 10° N 01:34:35 49° ENE 01:35:27 45° ESE
ALOS 2 2.9 01:35:14 55° ENE 01:35:14 55° ENE 01:39:30 10° N
Cosmos 1464 Rocket 4.2 01:29:52 10° NNW 01:35:56 61° W 01:37:35 46° SSW
CZ-4B R/B 4.3 01:38:35 10° ENE 01:38:37 10° ENE 01:39:19 10° NE
Cosmos 1707 Rocket 4.2 01:38:06 10° NNW 01:42:23 45° W 01:42:26 45° W
Cosmos 2263 Rocket 3.9 01:41:22 10° WSW 01:46:03 27° NW 01:50:47 10° N
COSMOS 2406 3.2 01:43:25 10° NNW 01:49:07 73° ENE 01:50:05 59° SE
Cosmos 2082 Rocket 4.5 01:57:51 10° N 02:01:30 17° NE 02:05:09 10° E
Tsikada Rocket 4.2 02:04:05 48° SW 02:05:46 65° W 02:12:06 10° N
Cosmos 1862 Rocket 3.7 02:01:56 10° N 02:05:55 73° NNW 02:05:55 73° NNW
Cosmos 1933 Rocket 3.7 02:07:25 71° NNW 02:07:25 71° NNW 02:11:25 10° N
Cosmos 292 Rocket 3.7 02:07:04 10° NNW 02:11:38 75° WNW 02:11:38 75° WNW
Cosmos 968 Rocket 4.1 02:13:30 43° WSW 02:14:36 50° WNW 02:19:43 10° N
Meteor 2-3 Rocket 3.8 02:13:59 59° SE 02:14:39 63° E 02:20:23 10° NNE
CZ-2C R/B 3.6 02:15:47 49° WSW 02:16:29 51° W 02:22:03 10° NNW
Cosmos 1844 Rocket 2.9 02:18:41 50° WSW 02:19:50 62° WNW 02:25:23 10° NNE
Aureole 3 4.4 02:23:58 54° ESE 02:24:34 57° E 02:29:29 10° NNE
Cosmos 1933 4.4 02:21:09 10° NNW 02:24:17 39° WNW 02:24:17 39° WNW
Cosmos 1825 4.3 02:28:11 19° ENE 02:28:11 19° ENE 02:30:16 10° NE
Cosmos 489 Rocket 4.5 02:30:13 56° SW 02:31:39 79° WNW 02:38:03 10° NNE
Cosmos 2221 Rocket 4.2 02:28:58 10° N 02:33:09 48° ENE 02:33:09 48° ENE
In-Cosmos 22 Rocket 4.5 02:32:50 49° WSW 02:33:40 54° WNW 02:39:09 10° N
SL-27 R/B 4.1 02:32:22 10° N 02:34:20 31° N 02:34:20 31° N
ATLAS 3B R/B 4.0 02:35:01 26° ESE 02:36:02 27° ESE 02:41:53 10° NE
H-2A R/B 3.8 02:31:58 10° NNE 02:35:40 33° E 02:35:40 33° E
Cosmos 1703 Rocket 3.7 02:33:22 10° N 02:37:33 74° NE 02:37:33 74° NE
Cosmos 1315 Rocket 3.7 02:39:14 43° NW 02:39:14 43° NW 02:42:21 10° N
Cosmos 1538 Rocket 4.5 02:36:48 10° NNW 02:41:55 47° WSW 02:41:55 47° WSW
Cosmos 1689 Rocket 4.3 02:45:36 28° N 02:45:36 28° N 02:47:16 10° N
Cosmos 44 Rocket 4.1 02:48:46 39° E 02:48:46 39° E 02:52:37 10° NE
Cosmos 1461 3.5 02:50:42 51° NNE 02:50:42 51° NNE 02:53:44 10° NNE
BREEZE-M DEB 4.4 02:43:09 10° W 02:50:35 40° NNW 02:53:21 10° NE
Cosmos 923 Rocket 3.8 02:45:26 10° NNW 02:50:40 88° WSW 02:50:59 80° S
CZ-2C R/B 4.2 02:49:21 10° NNW 02:53:37 25° WNW 02:55:19 21° W
Cosmos 1782 3.3 02:52:43 10° N 02:56:15 56° NE 02:56:15 56° NE
Okean 1-7 3.1 02:52:44 10° N 02:56:43 74° N 02:56:43 74° N
Cosmos 2279 Rocket 3.9 02:51:05 10° N 02:57:22 83° W 02:58:39 59° S
Timation 1 Rocket 4.2 02:57:42 64° S 02:58:40 84° ESE 03:04:40 10° NNE
Cosmos 1869 Rocket 3.7 03:00:25 69° NW 03:00:25 69° NW 03:04:26 10° N
Cosmos 1892 4.2 03:02:41 30° WNW 03:02:41 30° WNW 03:05:38 10° NNW
Landsat 5 3.8 03:04:45 59° NW 03:04:45 59° NW 03:08:20 10° NNW
OceanSat 1 rocket 4.5 03:04:42 10° N 03:09:32 80° WNW 03:09:45 77° WSW
Cosmos 1346 Rocket 3.8 03:06:00 10° NNW 03:08:45 38° NW 03:08:45 38° NW
CZ-4B R/B 3.1 03:12:09 30° NW 03:12:09 30° NW 03:14:13 10° NNW
Cosmos 2278 Rocket 2.5 03:10:58 48° WSW 03:12:11 59° WNW 03:17:47 10° NNE
CZ-4C R/B 4.1 03:11:20 12° W 03:15:21 26° NW 03:20:23 10° NNE
COSMOS 2487 4.0 03:14:05 10° N 03:17:17 31° ENE 03:17:17 31° ENE
Cosmos 1833 Rocket 3.1 03:11:51 10° NNW 03:17:27 59° ENE 03:19:46 34° SE
Cosmos 2112 Rocket 3.9 03:15:25 10° NNW 03:20:42 73° WSW 03:21:11 68° SSW
Cosmos 1340 3.7 03:19:46 10° N 03:23:21 39° ENE 03:23:21 39° ENE
Cosmos 1606 3.3 03:19:43 10° NNW 03:22:48 52° NW 03:22:48 52° NW
Cosmos 1733 Rocket 3.4 03:23:31 53° E 03:23:39 53° E 03:27:54 10° NNE
Genesis I 4.4 03:29:52 33° WNW 03:30:04 33° NW 03:33:39 10° NNE
Helios 1A Rocket 3.4 03:27:09 10° NNE 03:31:07 49° E 03:31:07 49° E
USA 238 DEB 4.3 03:29:29 37° SSE 03:31:22 44° ESE 03:37:56 10° NE
USA 238 4.3 03:29:35 36° SSE 03:31:29 44° ESE 03:38:01 10° NE
Cosmos 1680 Rocket 3.8 03:27:50 10° NNW 03:32:53 48° WSW 03:32:59 48° WSW
Cosmos 2297 3.6 03:32:59 58° SSW 03:34:11 87° WNW 03:39:53 10° NNE
Cosmos 1937 Rocket 3.6 03:34:12 53° SE 03:35:00 60° ESE 03:40:04 10° NNE
Meteor 2-20 4.4 03:40:43 47° S 03:42:38 80° E 03:48:49 10° N
SeaSat 1 3.2 03:40:02 21° SE 03:43:05 50° ENE 03:47:51 10° NNW
PSLV R/B 3.7 03:40:25 10° N 03:44:46 62° WNW 03:45:08 59° W
Cosmos 2082 Rocket 2.1 03:40:37 10° NNW 03:46:14 78° WSW 03:47:43 50° S
Cosmos 990 Rocket 4.0 03:46:52 53° SSE 03:47:53 67° ESE 03:53:01 10° NNE
Cosmos 1607 4.1 03:46:40 41° WSW 03:48:50 67° NW 03:55:06 10° NNE
Timation 2 Rocket 4.1 03:43:02 10° NNW 03:49:05 71° ENE 03:53:16 22° SE
Cosmos 1898 Rocket 3.5 03:50:09 54° SW 03:51:14 70° WNW 03:56:29 10° NNE
Cosmos 1674 Rocket 3.5 03:49:55 10° N 03:54:22 83° E 03:55:01 64° SSE
Sich 1 Rocket 4.3 03:53:26 39° SE 03:54:33 47° E 03:58:57 10° NNE
Cosmos 1092 Rocket 3.9 03:53:09 45° SSW 03:55:14 78° W 04:01:31 10° N
Cosmos 1825 3.8 04:03:04 23° WNW 04:03:04 23° WNW 04:05:55 10° NNW
Cosmos 1408 4.5 04:04:08 20° WNW 04:04:08 20° WNW 04:06:27 10° NNW
Resurs 1-4 Rocket 3.4 03:59:36 10° NE 04:04:19 31° E 04:07:04 20° SE
Cosmos 1812 4.4 04:01:20 10° NNE 04:04:43 28° ENE 04:06:35 19° ESE
Cosmos 1908 Rocket 3.7 04:04:43 51° SSE 04:05:40 67° E 04:10:05 10° NNE
Cosmos 2026 Rocket 4.0 04:03:17 37° S 04:05:47 76° E 04:11:51 10° N
ARIANE 5 R/B 4.0 04:02:34 10° NE 04:06:49 28° E 04:09:27 18° SE
ADEOS Rocket 3.8 04:00:22 10° NNE 04:07:53 60° E 04:11:52 27° S
NOSS 3-2 (A) 4.3 04:08:44 27° SSE 04:11:07 38° ESE 04:16:57 10° NE
H-2A R/B 4.2 04:07:49 10° NNW 04:11:23 23° WNW 04:12:17 22° W
Cosmos 44 4.0 04:10:42 33° W 04:12:01 41° NW 04:16:16 10° NNE
Cosmos 1378 Rocket 3.6 04:10:33 10° N 04:14:53 75° E 04:16:12 44° SSE
CBERS-1 4.0 04:10:11 10° NNE 04:15:21 79° ESE 04:17:10 41° S
CZ-3B DEB 4.0 04:02:29 10° NW 04:15:41 85° SW 04:26:51 10° SE
Okean 2 Rocket 4.3 04:17:24 23° SE 04:19:25 36° E 04:23:27 10° NNE
Cosmos 2344 4.2 04:16:06 25° S 04:20:15 45° ESE 04:27:58 10° NE
IRS-1D 4.4 04:15:45 10° NNE 04:20:34 42° E 04:23:08 24° SSE
Meteor 1-27 Rocket 4.4 04:16:11 10° NNW 04:21:41 40° W 04:23:16 34° SW
IRS-1C 4.2 04:18:15 10° NNE 04:23:37 73° ESE 04:25:58 34° S
CZ-2D R/B 2.8 04:20:48 10° NNE 04:26:01 49° E 04:29:06 24° SSE
ATLAS 3B R/B 3.0 04:22:16 29° SW 04:26:17 67° NW 04:33:27 10° NNE
Cosmos 1782 Rocket 3.7 04:27:05 38° SSE 04:28:43 69° E 04:33:11 10° NNE
Gbstr 26 Del rocket 4.3 04:29:03 21° SE 04:29:11 21° SE 04:32:01 10° E
Cosmos 1437 3.2 04:28:30 10° N 04:31:42 56° E 04:32:28 42° SE
AQUA 3.8 04:31:52 10° N 04:36:38 72° WNW 04:38:25 38° SSW
Cosmos 1428 Rocket 4.4 04:39:31 29° SSW 04:42:54 80° W 04:49:10 10° N
Cosmos 1655 Rocket 4.0 04:39:37 30° SSW 04:42:55 72° W 04:49:11 10° N
BREEZE M DEB (TANK) 4.4 04:48:47 10° WNW 04:50:38 18° NNW 04:52:19 10° NNE
SL-16 R/B 2.5 04:48:52 16° S 04:54:00 77° WSW 05:00:18 10° NNW
Cosmos 468 4.4 04:48:52 10° NNW 04:54:13 82° WSW 04:59:06 12° SSE
GP-B 4.2 04:50:31 10° NNW 04:54:24 30° W 04:55:37 26° WSW
NPP 4.3 04:50:33 10° N 04:55:36 42° WNW 04:58:15 25° WSW
Cosmos 1943 Rocket 3.2 04:51:40 16° SSE 04:55:46 40° ESE 05:00:59 10° NE
Cosmos 1975 Rocket 3.0 04:54:20 10° NNW 04:58:38 64° W 05:00:51 27° SSW
Cosmos 1833 Rocket 4.1 04:57:00 10° WNW 05:00:50 19° W 05:01:24 19° WSW
Okean 1 3.4 04:57:23 10° N 05:01:29 79° E 05:04:29 17° SSE
Cosmos 2369 Rocket 2.2 05:01:27 24° SSW 05:04:55 88° ESE 05:10:36 10° NNE
Cosmos 1441 Rocket 4.4 05:01:46 10° N 05:05:37 43° ENE 05:09:25 10° SSE
COBE Rocket 4.4 05:01:10 10° N 05:05:46 46° WNW 05:08:18 25° SW
MOS 1 Rocket 3.9 05:00:38 10° NNE 05:05:57 62° E 05:10:08 15° S
Cosmos 2151 Rocket 4.0 05:04:21 16° S 05:07:48 61° E 05:12:17 10° NNE
Cosmos 2266 Rocket 4.1 05:04:16 16° S 05:09:36 83° E 05:16:01 10° N
Meteor 1-20 Rocket 4.3 05:05:55 22° SSW 05:09:41 69° W 05:15:33 10° N
Meteor 1-18 Rocket 4.3 05:07:40 10° NNW 05:13:06 58° W 05:17:27 16° S
SL-08 R/B 4.5 05:11:59 22° WSW 05:13:26 26° W 05:17:27 10° NW
Cosmos 1048 Rocket 4.0 05:08:03 10° NNW 05:13:27 80° WSW 05:18:48 10° SSE
Cosmos 1346 3.3 05:12:07 10° NNW 05:14:41 37° W 05:14:54 36° WSW
S3M 4.2 05:11:16 10° NNW 05:17:13 52° W 05:21:53 16° SSW
USA 161 3.8 05:15:21 10° SE 05:17:18 22° ENE 05:19:23 10° NNE
BREEZE-M DEB (TANK) 2.8 05:15:01 10° WNW 05:20:36 61° SSW 05:23:23 10° SE
SeaSat 1 3.7 05:19:47 20° WSW 05:20:49 21° WSW 05:24:32 10° WNW
Cosmos 1536 Rocket 3.9 05:16:52 10° N 05:21:22 67° E 05:25:48 10° SSE
UNK 4.3 05:20:03 21° SSW 05:22:41 38° W 05:27:03 10° NNW
UNKNOWN OBJECT B 2.6 05:21:26 10° NNE 05:25:11 89° W 05:27:50 18° SSW
ADEOS 3.8 05:20:04 10° N 05:25:11 57° WNW 05:28:59 18° SW
Cosmos 2263 4.2 05:21:29 18° SSW 05:25:53 88° WNW 05:31:43 10° NNE
Abrixas 3.8 05:26:45 10° NW 05:29:20 37° NNE 05:31:55 10° E
deb Kosmos-1763 4.1 05:32:02 10° NNW 05:35:49 84° ENE 05:39:34 10° SSE
Cosmos 405 Rocket 3.2 05:32:44 10° NNW 05:36:29 41° W 05:39:25 15° SSW
Cosmos 1812 4.4 05:37:44 10° NW 05:40:20 18° W 05:41:43 15° WSW
Cosmos 1125 Rocket 4.4 05:39:24 15° SW 05:43:16 36° WNW 05:48:09 10° N
Resurs 1-4 Rocket 3.1 05:39:23 10° N 05:44:06 33° WNW 05:48:09 13° SW
ARIANE 5 R/B 3.4 05:41:30 10° N 05:45:57 33° WNW 05:49:48 13° SW
COSMOS 2455 2.9 05:43:21 14° SW 05:48:41 77° WNW 05:54:43 10° NNE
BREEZE-M R/B 2.7 05:43:18 10° WNW 05:48:50 68° SW 05:51:49 10° SE
PSLV R/B 3.2 05:46:53 15° WSW 05:49:27 65° SSE 05:52:44 10° E
Okean 1 Rocket 3.4 05:47:05 10° S 05:51:30 68° E 05:55:56 10° NNE
CZ-2D R/B 3.9 05:47:17 10° N 05:51:36 53° WNW 05:55:45 11° SSW
USA 267 3.3 05:46:23 10° NE 05:52:58 89° SE 05:59:25 10° SW
ASTRO E2 4.2 05:54:55 13° SW 05:57:17 20° S 06:00:17 10° SE
Cosmos 1633 4.0 05:54:57 13° WSW 05:57:19 23° WNW 06:00:15 10° NNW
BREEZE M DEB (TANK) 3.8 05:51:45 11° SW 05:57:42 38° SSE 06:00:18 10° ENE
NOSS 3-2 (A) 4.3 05:56:10 10° WSW 06:01:52 41° NW 06:08:09 10° NNE
NOSS 3-2 (C) 4.0 05:56:27 11° WSW 06:02:08 51° NW 06:08:37 10° NNE
CZ-2D R/B 3.6 06:01:38 10° NNW 06:05:45 23° WNW 06:09:53 10° WSW
Cosmos 1900 4.5 06:01:17 10° NNW 06:06:28 89° NE 06:11:37 10° SSE
Cosmos 1300 Rocket 3.8 06:03:48 10° SSW 06:08:08 53° W 06:12:30 10° N
CZ-4B R/B 4.2 06:02:47 10° NNE 06:08:12 49° E 06:13:37 10° S
Cosmos 1536 2.9 06:04:40 10° SSW 06:08:34 59° W 06:12:32 10° N
BREEZE M DEB (TANK) 1.4 06:09:21 10° WSW 06:11:23 70° NNW 06:14:30 10° ENE
OE (NEXTSAT) 4.5 06:09:19 10° WSW 06:12:51 79° NNW 06:16:26 10° ENE
CENTAUR R/B 2.7 06:07:50 10° SSW 06:13:46 73° ESE 06:20:33 10° NE
Cosmos 1238 Rocket 3.4 06:11:33 10° N 06:14:29 46° E 06:17:44 10° SSE
Cosmos 1745 Rocket 4.5 06:09:16 10° S 06:15:33 67° E 06:21:48 10° NNE
Gbstr 26 Del rocket 3.2 06:12:05 10° WSW 06:15:43 50° NNW 06:19:28 10° NE
Meteor 2-4 Rocket 3.8 06:10:20 10° NNW 06:15:51 60° W 06:21:12 10° S
MOS 1-B 4.4 06:10:27 10° N 06:16:12 69° WNW 06:21:56 10° SSW
Lacrosse 4 Rocket 4.2 06:12:44 10° N 06:16:36 27° NE 06:20:25 10° ESE
